Retour au catalogue

DELTA 1 DEB

ActifSSO
NORAD 42085·DEBRIS·🇺🇸 United States

Lancé Dec 15, 1968 depuis Vandenberg Space Force Base

Loading…

Prochains Passages (prochaines 24 heures)

TLE

VieillissantSource: Space-Track

Époque: Sep 8, 2026, 09:28 UTC

1 42085U 68114M   26251.39489764  .00000058  00000-0  40734-3 0  9999
2 42085 100.9117 310.6322 0115976 187.5242 236.2794 12.84487125599834

Suivez DELTA 1 DEB en temps réel avec AllMySat

Download on the App Store